Location: Newark
(36.0797°N, 3.9744°E)
Time: 20:16:38
(UTC+00:00)

Vanguard 2 Rocket - Pass Details

Date: 10 December 2019
Orbit: 554 x 3326 km, 32.9° (Epoch: 26 January)

Event Time Altitude Azimuth Distance (km) Brightness Sun altitude
Rises 13:26:27 0° 191° (SSW) 7,302 12.7 25.6°
Reaches altitude 10° 13:34:44 10° 174° (S) 6,166 12.1 24.8°
Maximum altitude 13:44:19 16° 143° (SE) 5,244 11.2 23.8°
Drops below altitude 10° 13:52:28 10° 112° (ESE) 5,189 10.7 22.9°
Sets 13:58:10 0° 93° (E) 5,679 10.7 22.2°
